| time (UTC) | temp F | wind direction | speed knots | gust knots | rain 1hr in | rain 24hr in | rain mn in | humidity % | barometer mb |
| 20260905135720 | 85 | 237 | 0.0 | 3.5 | 0.00 | 0.00 | 0.00 | 64 | 1013.3 |
| 20260905135219 | 84 | 154 | 0.0 | 2.6 | 0.00 | 0.00 | 0.00 | 67 | 1013.3 |
| 20260905134650 | 83 | 124 | 0.9 | 2.6 | 0.00 | 0.00 | 0.00 | 68 | 1013.2 |
| 20260905134149 | 83 | 218 | 0.0 | 2.6 | 0.00 | 0.00 | 0.00 | 69 | 1013.1 |
| 20260905133642 | 82 | 155 | 0.0 | 1.7 | 0.00 | 0.00 | 0.00 | 70 | 1013.1 |
| 20260905133404 | 82 | 129 | 0.0 | 0.0 | 0.00 | 0.00 | 0.00 | 71 | 1013.1 |
| 20260905132832 | 81 | 154 | 0.0 | 0.0 | 0.00 | 0.00 | 0.00 | 71 | 1013.1 |
| 20260905132111 | 81 | 244 | 0.0 | 0.0 | 0.00 | 0.00 | 0.00 | 72 | 1013.0 |
| 20260905131542 | 81 | 244 | 0.0 | 0.0 | 0.00 | 0.00 | 0.00 | 72 | 1013.1 |
| 20260905131042 | 80 | 229 | 0.0 | 0.0 | 0.00 | 0.00 | 0.00 | 73 | 1013.0 |
| 20260905130758 | 80 | 226 | 0.0 | 1.7 | 0.00 | 0.00 | 0.00 | 74 | 1013.0 |
| 20260905130034 | 80 | 226 | 0.0 | 1.7 | 0.00 | 0.00 | 0.00 | 74 | 1012.9 |
| 20260905125529 | 79 | 118 | 0.0 | 1.7 | 0.00 | 0.00 | 0.00 | 75 | 1012.7 |
| 20260905125010 | 79 | 236 | 0.0 | 1.7 | 0.00 | 0.00 | 0.00 | 76 | 1012.6 |
| 20260905124438 | 78 | 131 | 0.0 | 1.7 | 0.00 | 0.00 | 0.00 | 77 | 1012.5 |
| 20260905123910 | 77 | 122 | 0.0 | 1.7 | 0.00 | 0.00 | 0.00 | 79 | 1012.4 |
| 20260905123406 | 76 | 243 | 0.0 | 0.0 | 0.00 | 0.00 | 0.00 | 80 | 1012.4 |
| 20260905122904 | 76 | 255 | 0.0 | 0.0 | 0.00 | 0.00 | 0.00 | 80 | 1012.5 |
| 20260905122402 | 76 | 255 | 0.0 | 0.0 | 0.00 | 0.00 | 0.00 | 80 | 1012.5 |
| 20260905121839 | 76 | 255 | 0.0 | 0.0 | 0.00 | 0.00 | 0.00 | 79 | 1012.6 |
| 20260905121307 | 76 | 255 | 0.0 | 0.0 | 0.00 | 0.00 | 0.00 | 79 | 1012.5 |
| 20260905120803 | 76 | 254 | 0.0 | 0.0 | 0.00 | 0.00 | 0.00 | 79 | 1012.6 |
| 20260905120239 | 76 | 254 | 0.0 | 0.0 | 0.00 | 0.00 | 0.00 | 78 | 1012.5 |
| 20260905115713 | 76 | 255 | 0.0 | 0.0 | 0.00 | 0.00 | 0.00 | 79 | 1012.6 |
| 20260905115144 | 76 | 255 | 0.0 | 0.0 | 0.00 | 0.00 | 0.00 | 79 | 1012.6 |
| 20260905114640 | 76 | 255 | 0.0 | 0.0 | 0.00 | 0.00 | 0.00 | 78 | 1012.6 |
| 20260905114343 | 76 | 255 | 0.0 | 0.0 | 0.00 | 0.00 | 0.00 | 78 | 1012.5 |
| 20260905113551 | 76 | 255 | 0.0 | 0.0 | 0.00 | 0.00 | 0.00 | 77 | 1012.5 |
| 20260905113036 | 76 | 255 | 0.0 | 0.0 | 0.00 | 0.00 | 0.00 | 76 | 1012.5 |
| 20260905112535 | 77 | 255 | 0.0 | 0.0 | 0.00 | 0.00 | 0.00 | 76 | 1012.6 |
| 20260905112036 | 77 | 255 | 0.0 | 0.0 | 0.00 | 0.00 | 0.00 | 77 | 1012.5 |
| 20260905111535 | 76 | 255 | 0.0 | 0.0 | 0.00 | 0.00 | 0.00 | 76 | 1012.6 |
| 20260905111033 | 76 | 255 | 0.0 | 0.0 | 0.00 | 0.00 | 0.00 | 76 | 1012.5 |
| 20260905110528 | 77 | 255 | 0.0 | 0.0 | 0.00 | 0.00 | 0.00 | 74 | 1012.4 |
| 20260905110026 | 77 | 255 | 0.0 | 0.0 | 0.00 | 0.00 | 0.00 | 74 | 1012.3 |
| 20260905105528 | 77 | 255 | 0.0 | 0.0 | 0.00 | 0.00 | 0.00 | 74 | 1012.3 |
| 20260905105002 | 78 | 255 | 0.0 | 0.0 | 0.00 | 0.00 | 0.00 | 73 | 1012.4 |
| 20260905104506 | 78 | 255 | 0.0 | 0.0 | 0.00 | 0.00 | 0.00 | 73 | 1012.3 |
| 20260905103936 | 78 | 255 | 0.0 | 0.0 | 0.00 | 0.00 | 0.00 | 72 | 1012.4 |
| 20260905103912 | 79 | 254 | 0.0 | 0.0 | 0.00 | 0.00 | 0.00 | 71 | 1012.4 |
| 20260905102920 | 79 | 255 | 0.0 | 0.0 | 0.00 | 0.00 | 0.00 | 70 | 1012.4 |
| 20260905102418 | 79 | 255 | 0.0 | 0.0 | 0.00 | 0.00 | 0.00 | 69 | 1012.4 |
| 20260905101916 | 80 | 254 | 0.0 | 0.0 | 0.00 | 0.00 | 0.00 | 69 | 1012.4 |
| 20260905101415 | 80 | 254 | 0.0 | 0.0 | 0.00 | 0.00 | 0.00 | 69 | 1012.3 |
| 20260905100914 | 80 | 255 | 0.0 | 0.0 | 0.00 | 0.00 | 0.00 | 69 | 1012.2 |
| 20260905100413 | 80 | 255 | 0.0 | 0.0 | 0.00 | 0.00 | 0.00 | 69 | 1012.3 |
| 20260905095912 | 80 | 255 | 0.0 | 0.0 | 0.00 | 0.00 | 0.00 | 69 | 1012.3 |
| 20260905095414 | 80 | 255 | 0.0 | 1.7 | 0.00 | 0.00 | 0.00 | 69 | 1012.2 |
| 20260905094908 | 80 | 255 | 0.0 | 1.7 | 0.00 | 0.00 | 0.00 | 69 | 1012.1 |
| 20260905094633 | 80 | 159 | 0.0 | 1.7 | 0.00 | 0.00 | 0.00 | 69 | 1012.1 |
| 20260905093910 | 80 | 229 | 0.0 | 1.7 | 0.00 | 0.00 | 0.00 | 70 | 1012.1 |
| 20260905093604 | 80 | 240 | 0.0 | 0.0 | 0.00 | 0.00 | 0.00 | 71 | 1012.2 |
| 20260905092839 | 79 | 240 | 0.0 | 0.0 | 0.00 | 0.00 | 0.00 | 71 | 1012.2 |
| 20260905092342 | 79 | 195 | 0.0 | 0.0 | 0.00 | 0.00 | 0.00 | 73 | 1012.1 |
| 20260905091815 | 78 | 219 | 0.0 | 0.0 | 0.00 | 0.00 | 0.00 | 74 | 1012.1 |
| 20260905091313 | 78 | 219 | 0.0 | 0.0 | 0.00 | 0.00 | 0.00 | 74 | 1012.1 |
| 20260905091037 | 78 | 219 | 0.0 | 0.0 | 0.00 | 0.00 | 0.00 | 73 | 1012.1 |
| 20260905090312 | 79 | 219 | 0.0 | 0.0 | 0.00 | 0.00 | 0.00 | 72 | 1012.1 |
| 20260905085810 | 79 | 219 | 0.0 | 0.0 | 0.00 | 0.00 | 0.00 | 72 | 1012.0 |
| 20260905085309 | 79 | 219 | 0.0 | 0.0 | 0.00 | 0.00 | 0.00 | 72 | 1011.9 |
| 20260905084811 | 80 | 219 | 0.0 | 0.0 | 0.00 | 0.00 | 0.00 | 71 | 1011.7 |
| 20260905084250 | 80 | 219 | 0.0 | 0.0 | 0.00 | 0.00 | 0.00 | 70 | 1011.7 |
| 20260905083723 | 81 | 219 | 0.0 | 0.0 | 0.00 | 0.00 | 0.00 | 69 | 1011.7 |
| 20260905083223 | 81 | 219 | 0.0 | 0.0 | 0.00 | 0.00 | 0.00 | 68 | 1011.6 |
| 20260905082703 | 82 | 219 | 0.0 | 0.0 | 0.00 | 0.00 | 0.00 | 67 | 1011.5 |
| 20260905082201 | 82 | 219 | 0.0 | 0.0 | 0.00 | 0.00 | 0.00 | 67 | 1011.6 |
| 20260905081640 | 82 | 219 | 0.0 | 0.0 | 0.00 | 0.00 | 0.00 | 67 | 1011.5 |
| 20260905081115 | 82 | 219 | 0.0 | 0.0 | 0.00 | 0.00 | 0.00 | 67 | 1011.6 |
| 20260905080554 | 82 | 215 | 0.0 | 0.0 | 0.00 | 0.00 | 0.00 | 67 | 1011.6 |
| 20260905080032 | 82 | 184 | 0.0 | 0.0 | 0.00 | 0.00 | 0.00 | 67 | 1011.5 |
| 20260905075514 | 82 | 270 | 0.0 | 2.6 | 0.00 | 0.00 | 0.00 | 67 | 1011.6 |
| 20260905074953 | 82 | 252 | 0.0 | 2.6 | 0.00 | 0.00 | 0.00 | 67 | 1011.6 |
| 20260905074453 | 82 | 114 | 0.0 | 1.7 | 0.00 | 0.00 | 0.00 | 68 | 1011.6 |
| 20260905073951 | 81 | 123 | 0.0 | 1.7 | 0.00 | 0.00 | 0.00 | 68 | 1011.7 |
| 20260905073452 | 81 | 211 | 0.0 | 0.9 | 0.00 | 0.00 | 0.00 | 68 | 1011.7 |
| 20260905072948 | 81 | 221 | 0.0 | 0.0 | 0.00 | 0.00 | 0.00 | 68 | 1011.9 |
| 20260905072706 | 81 | 226 | 0.0 | 0.0 | 0.00 | 0.00 | 0.00 | 67 | 1012.0 |
| 20260905072142 | 82 | 226 | 0.0 | 0.0 | 0.00 | 0.00 | 0.00 | 66 | 1012.1 |
| 20260905071639 | 82 | 226 | 0.0 | 0.0 | 0.00 | 0.00 | 0.00 | 66 | 1012.2 |
| 20260905070920 | 82 | 226 | 0.0 | 0.0 | 0.00 | 0.00 | 0.00 | 66 | 1012.3 |
| 20260905070415 | 82 | 226 | 0.0 | 0.0 | 0.00 | 0.00 | 0.00 | 65 | 1012.3 |
| 20260905070125 | 83 | 226 | 0.0 | 0.0 | 0.00 | 0.00 | 0.00 | 64 | 1012.3 |
| 20260905065346 | 83 | 226 | 0.0 | 0.0 | 0.00 | 0.00 | 0.00 | 64 | 1012.3 |
| 20260905064843 | 83 | 226 | 0.0 | 0.0 | 0.00 | 0.00 | 0.00 | 63 | 1012.3 |
| 20260905064825 | 84 | 226 | 0.0 | 0.0 | 0.00 | 0.00 | 0.00 | 62 | 1012.3 |
| 20260905063819 | 84 | 226 | 0.0 | 0.0 | 0.00 | 0.00 | 0.00 | 62 | 1012.3 |
| 20260905063252 | 84 | 226 | 0.0 | 1.7 | 0.00 | 0.00 | 0.00 | 61 | 1012.4 |
| 20260905062726 | 84 | 226 | 0.0 | 0.9 | 0.00 | 0.00 | 0.00 | 61 | 1012.3 |
| 20260905062213 | 84 | 195 | 0.0 | 1.7 | 0.00 | 0.00 | 0.00 | 61 | 1012.4 |
| 20260905061714 | 84 | 217 | 0.0 | 0.9 | 0.00 | 0.00 | 0.00 | 61 | 1012.3 |
| 20260905061149 | 85 | 215 | 0.0 | 0.0 | 0.00 | 0.00 | 0.00 | 60 | 1012.3 |
| 20260905060621 | 85 | 215 | 0.0 | 0.9 | 0.00 | 0.00 | 0.00 | 60 | 1012.3 |
| 20260905060123 | 85 | 215 | 0.0 | 1.7 | 0.00 | 0.00 | 0.00 | 60 | 1012.3 |
| 20260905055553 | 85 | 152 | 0.0 | 1.7 | 0.00 | 0.00 | 0.00 | 59 | 1012.2 |
| 20260905055052 | 85 | 266 | 0.0 | 2.6 | 0.00 | 0.00 | 0.00 | 59 | 1012.2 |
| 20260905054546 | 85 | 222 | 0.9 | 5.2 | 0.00 | 0.00 | 0.00 | 59 | 1012.1 |
| 20260905054022 | 85 | 248 | 0.9 | 5.2 | 0.00 | 0.00 | 0.00 | 59 | 1012.1 |
| 20260905053455 | 85 | 193 | 0.9 | 3.5 | 0.00 | 0.00 | 0.00 | 58 | 1012.0 |
| 20260905052927 | 86 | 122 | 0.9 | 3.5 | 0.00 | 0.00 | 0.00 | 58 | 1011.9 |
| 20260905052423 | 86 | 153 | 0.9 | 4.3 | 0.00 | 0.00 | 0.00 | 58 | 1011.9 |
| 20260905051920 | 86 | 229 | 0.9 | 5.2 | 0.00 | 0.00 | 0.00 | 58 | 1011.9 |
| 20260905051419 | 86 | 210 | 0.9 | 5.2 | 0.00 | 0.00 | 0.00 | 58 | 1011.7 |
| 20260905050852 | 86 | 177 | 0.9 | 2.6 | 0.00 | 0.00 | 0.00 | 58 | 1011.7 |
| 20260905050325 | 86 | 215 | 0.9 | 2.6 | 0.00 | 0.00 | 0.00 | 58 | 1011.6 |
| 20260905045758 | 86 | 235 | 0.9 | 3.5 | 0.00 | 0.00 | 0.00 | 58 | 1011.6 |
| 20260905045520 | 86 | 259 | 0.0 | 3.5 | 0.00 | 0.00 | 0.00 | 57 | 1011.7 |
| 20260905044747 | 86 | 149 | 0.9 | 2.6 | 0.00 | 0.00 | 0.00 | 57 | 1011.9 |
| 20260905044243 | 87 | 125 | 0.9 | 4.3 | 0.00 | 0.00 | 0.00 | 56 | 1011.9 |
| 20260905044003 | 87 | 160 | 1.7 | 5.2 | 0.00 | 0.00 | 0.00 | 56 | 1011.9 |
| 20260905043215 | 87 | 223 | 1.7 | 5.2 | 0.00 | 0.00 | 0.00 | 55 | 1011.9 |
| 20260905043151 | 87 | 148 | 1.7 | 5.2 | 0.00 | 0.00 | 0.00 | 55 | 1011.7 |
| 20260905042206 | 87 | 248 | 0.9 | 3.5 | 0.00 | 0.00 | 0.00 | 54 | 1011.7 |
| 20260905041637 | 87 | 233 | 1.7 | 4.3 | 0.00 | 0.00 | 0.00 | 54 | 1011.7 |
| 20260905041133 | 87 | 220 | 1.7 | 4.3 | 0.00 | 0.00 | 0.00 | 54 | 1011.9 |
| 20260905040631 | 87 | 165 | 0.9 | 5.2 | 0.00 | 0.00 | 0.00 | 54 | 1011.7 |
| 20260905040129 | 87 | 162 | 0.9 | 5.2 | 0.00 | 0.00 | 0.00 | 54 | 1011.9 |
| 20260905035628 | 87 | 161 | 0.9 | 3.5 | 0.00 | 0.00 | 0.00 | 55 | 1012.0 |
| 20260905035324 | 88 | 219 | 0.9 | 3.5 | 0.00 | 0.00 | 0.00 | 55 | 1012.0 |
| 20260905035040 | 88 | 136 | 0.9 | 4.3 | 0.00 | 0.00 | 0.00 | 55 | 1012.0 |
| 20260905034252 | 88 | 164 | 0.0 | 2.6 | 0.00 | 0.00 | 0.00 | 55 | 1011.9 |
| 20260905033744 | 88 | 115 | 0.0 | 2.6 | 0.00 | 0.00 | 0.00 | 55 | 1011.9 |
| 20260905033025 | 88 | 110 | 0.0 | 2.6 | 0.00 | 0.00 | 0.00 | 55 | 1011.9 |
| 20260905032457 | 88 | 124 | 0.0 | 2.6 | 0.00 | 0.00 | 0.00 | 55 | 1011.9 |
| 20260905032225 | 88 | 119 | 0.0 | 2.6 | 0.00 | 0.00 | 0.00 | 54 | 1011.7 |
| 20260905031650 | 89 | 127 | 0.0 | 3.5 | 0.00 | 0.00 | 0.00 | 53 | 1011.7 |
| 20260905030924 | 89 | 139 | 0.9 | 3.5 | 0.00 | 0.00 | 0.00 | 53 | 1011.7 |
| 20260905030357 | 89 | 148 | 0.9 | 1.7 | 0.00 | 0.00 | 0.00 | 52 | 1011.7 |
| 20260905025829 | 89 | 111 | 0.9 | 4.3 | 0.00 | 0.00 | 0.00 | 50 | 1011.7 |
| 20260905025329 | 89 | 117 | 0.9 | 4.3 | 0.00 | 0.00 | 0.00 | 50 | 1011.6 |
| 20260905024801 | 89 | 100 | 0.0 | 2.6 | 0.00 | 0.00 | 0.00 | 50 | 1011.5 |
| 20260905024258 | 89 | 119 | 0.0 | 2.6 | 0.00 | 0.00 | 0.00 | 49 | 1011.5 |
| 20260905023755 | 89 | 124 | 0.0 | 3.5 | 0.00 | 0.00 | 0.00 | 49 | 1011.4 |
| 20260905023544 | 89 | 139 | 0.9 | 3.5 | 0.00 | 0.00 | 0.00 | 49 | 1011.3 |
| 20260905023445 | 89 | 141 | 0.9 | 4.3 | 0.00 | 0.00 | 0.00 | 49 | 1011.3 |
| 20260905022223 | 89 | 129 | 0.9 | 4.3 | 0.00 | 0.00 | 0.00 | 49 | 1011.1 |
| 20260905021655 | 90 | 131 | 0.0 | 3.5 | 0.00 | 0.00 | 0.00 | 49 | 1011.1 |
| 20260905021637 | 90 | 131 | 0.0 | 1.7 | 0.00 | 0.00 | 0.00 | 49 | 1011.0 |
| 20260905020627 | 90 | 131 | 0.0 | 2.6 | 0.00 | 0.00 | 0.00 | 49 | 1010.9 |
| 20260905020116 | 90 | 131 | 0.0 | 2.6 | 0.00 | 0.00 | 0.00 | 49 | 1010.8 |
| 20260905015615 | 90 | 135 | 0.9 | 3.5 | 0.00 | 0.00 | 0.00 | 49 | 1010.7 |
| 20260905015115 | 91 | 150 | 0.9 | 3.5 | 0.00 | 0.00 | 0.00 | 49 | 1010.7 |
| 20260905014756 | 91 | 117 | 0.0 | 4.3 | 0.00 | 0.00 | 0.00 | 48 | 1010.6 |
| 20260905014646 | 91 | 137 | 0.9 | 4.3 | 0.00 | 0.00 | 0.00 | 48 | 1010.6 |
| 20260905013604 | 91 | 139 | 0.9 | 3.5 | 0.00 | 0.00 | 0.00 | 47 | 1010.5 |
| 20260905013105 | 91 | 108 | 0.9 | 5.2 | 0.00 | 0.00 | 0.00 | 46 | 1010.5 |
| 20260905012541 | 91 | 144 | 0.9 | 5.2 | 0.00 | 0.00 | 0.00 | 46 | 1010.5 |
| 20260905012044 | 92 | 139 | 0.9 | 4.3 | 0.00 | 0.00 | 0.00 | 45 | 1010.5 |
| 20260905011539 | 92 | 132 | 0.9 | 4.3 | 0.00 | 0.00 | 0.00 | 44 | 1010.5 |
| 20260905011042 | 92 | 143 | 0.9 | 4.3 | 0.00 | 0.00 | 0.00 | 44 | 1010.3 |
| 20260905010741 | 92 | 129 | 1.7 | 4.3 | 0.00 | 0.00 | 0.00 | 43 | 1010.3 |
| 20260905005955 | 92 | 131 | 1.7 | 4.3 | 0.00 | 0.00 | 0.00 | 43 | 1010.3 |
| 20260905005449 | 93 | 121 | 1.7 | 4.3 | 0.00 | 0.00 | 0.00 | 42 | 1010.1 |
| 20260905004931 | 93 | 99 | 2.6 | 4.3 | 0.00 | 0.00 | 0.00 | 42 | 1010.1 |
| 20260905004431 | 93 | 132 | 1.7 | 5.2 | 0.00 | 0.00 | 0.00 | 41 | 1010.1 |
| 20260905003905 | 94 | 150 | 1.7 | 6.1 | 0.00 | 0.00 | 0.00 | 41 | 1010.1 |
| 20260905003353 | 94 | 139 | 2.6 | 7.8 | 0.00 | 0.00 | 0.00 | 40 | 1010.1 |
| 20260905003109 | 94 | 120 | 2.6 | 7.8 | 0.00 | 0.00 | 0.00 | 40 | 1010.1 |
| 20260905002353 | 95 | 110 | 1.7 | 6.1 | 0.00 | 0.00 | 0.00 | 40 | 1010.0 |
| 20260905001825 | 95 | 155 | 1.7 | 6.1 | 0.00 | 0.00 | 0.00 | 40 | 1009.9 |
| 20260905001312 | 95 | 158 | 1.7 | 6.1 | 0.00 | 0.00 | 0.00 | 39 | 1009.9 |
| 20260905000748 | 96 | 108 | 1.7 | 6.1 | 0.00 | 0.00 | 0.00 | 38 | 1009.9 |
| 20260905000248 | 96 | 139 | 2.6 | 6.1 | 0.00 | 0.00 | 0.00 | 38 | 1009.9 |
| 20260904235748 | 96 | 122 | 2.6 | 6.1 | 0.00 | 0.00 | 0.00 | 38 | 1009.8 |
| 20260904235504 | 96 | 111 | 2.6 | 7.0 | 0.00 | 0.00 | 0.00 | 38 | 1009.9 |
| 20260904234746 | 96 | 176 | 3.5 | 7.0 | 0.00 | 0.00 | 0.00 | 38 | 1009.9 |
| 20260904234507 | 96 | 115 | 2.6 | 7.0 | 0.00 | 0.00 | 0.00 | 38 | 1009.8 |
| 20260904233742 | 96 | 125 | 2.6 | 7.0 | 0.00 | 0.00 | 0.00 | 38 | 1009.8 |
| 20260904233245 | 97 | 159 | 2.6 | 7.0 | 0.00 | 0.00 | 0.00 | 38 | 1009.8 |
| 20260904232720 | 97 | 127 | 2.6 | 7.0 | 0.00 | 0.00 | 0.00 | 38 | 1009.8 |
| 20260904232219 | 97 | 186 | 2.6 | 7.0 | 0.00 | 0.00 | 0.00 | 38 | 1009.7 |
| 20260904231654 | 97 | 143 | 2.6 | 7.0 | 0.00 | 0.00 | 0.00 | 38 | 1009.8 |
| 20260904231126 | 97 | 139 | 3.5 | 8.7 | 0.00 | 0.00 | 0.00 | 38 | 1009.8 |
| 20260904230623 | 97 | 152 | 4.3 | 9.6 | 0.00 | 0.00 | 0.00 | 37 | 1009.8 |
| 20260904230053 | 97 | 103 | 3.5 | 7.0 | 0.00 | 0.00 | 0.00 | 37 | 1009.8 |
| 20260904225534 | 97 | 113 | 3.5 | 7.8 | 0.00 | 0.00 | 0.00 | 38 | 1009.8 |
| 20260904225034 | 98 | 113 | 3.5 | 8.7 | 0.00 | 0.00 | 0.00 | 37 | 1009.9 |
| 20260904224532 | 98 | 229 | 3.5 | 8.7 | 0.00 | 0.00 | 0.00 | 37 | 1009.9 |
| 20260904224030 | 97 | 129 | 2.6 | 7.8 | 0.00 | 0.00 | 0.00 | 38 | 1009.9 |
| 20260904223502 | 97 | 153 | 3.5 | 7.0 | 0.00 | 0.00 | 0.00 | 38 | 1010.0 |
| 20260904223007 | 98 | 187 | 3.5 | 8.7 | 0.00 | 0.00 | 0.00 | 37 | 1010.0 |
| 20260904222433 | 98 | 129 | 3.5 | 8.7 | 0.00 | 0.00 | 0.00 | 38 | 1010.0 |
| 20260904221915 | 99 | 144 | 3.5 | 7.0 | 0.00 | 0.00 | 0.00 | 38 | 1010.0 |
| 20260904221414 | 99 | 148 | 2.6 | 7.8 | 0.00 | 0.00 | 0.00 | 39 | 1009.9 |
| 20260904220847 | 99 | 214 | 2.6 | 6.1 | 0.00 | 0.00 | 0.00 | 38 | 1009.9 |
| 20260904220345 | 98 | 117 | 3.5 | 7.8 | 0.00 | 0.00 | 0.00 | 38 | 1009.9 |
| 20260904215842 | 98 | 236 | 3.5 | 7.8 | 0.00 | 0.00 | 0.00 | 38 | 1010.0 |
| 20260904215314 | 98 | 179 | 3.5 | 7.8 | 0.00 | 0.00 | 0.00 | 39 | 1010.1 |
| 20260904214748 | 98 | 111 | 4.3 | 10.4 | 0.00 | 0.00 | 0.00 | 39 | 1010.1 |
| 20260904214222 | 98 | 258 | 4.3 | 10.4 | 0.00 | 0.00 | 0.00 | 38 | 1010.2 |
| 20260904213654 | 98 | 147 | 4.3 | 9.6 | 0.00 | 0.00 | 0.00 | 40 | 1010.2 |
| 20260904213149 | 98 | 106 | 4.3 | 9.6 | 0.00 | 0.00 | 0.00 | 39 | 1010.2 |
| 20260904212645 | 98 | 129 | 3.5 | 9.6 | 0.00 | 0.00 | 0.00 | 39 | 1010.3 |
| 20260904212142 | 98 | 142 | 3.5 | 7.8 | 0.00 | 0.00 | 0.00 | 39 | 1010.4 |
| 20260904211639 | 98 | 141 | 4.3 | 7.8 | 0.00 | 0.00 | 0.00 | 38 | 1010.4 |
| 20260904211133 | 98 | 201 | 4.3 | 9.6 | 0.00 | 0.00 | 0.00 | 38 | 1010.5 |
| 20260904210631 | 98 | 70 | 4.3 | 9.6 | 0.00 | 0.00 | 0.00 | 38 | 1010.5 |
| 20260904210110 | 98 | 194 | 3.5 | 9.6 | 0.00 | 0.00 | 0.00 | 37 | 1010.6 |
| 20260904205816 | 98 | 136 | 3.5 | 9.6 | 0.00 | 0.00 | 0.00 | 38 | 1010.6 |
| 20260904205054 | 99 | 191 | 3.5 | 8.7 | 0.00 | 0.00 | 0.00 | 37 | 1010.7 |
| 20260904204549 | 99 | 130 | 3.5 | 8.7 | 0.00 | 0.00 | 0.00 | 37 | 1010.7 |
| 20260904204048 | 98 | 189 | 3.5 | 8.7 | 0.00 | 0.00 | 0.00 | 37 | 1010.7 |
| 20260904203518 | 99 | 120 | 3.5 | 8.7 | 0.00 | 0.00 | 0.00 | 36 | 1010.8 |
| 20260904203018 | 99 | 141 | 3.5 | 7.8 | 0.00 | 0.00 | 0.00 | 38 | 1010.9 |
| 20260904202454 | 99 | 134 | 3.5 | 7.8 | 0.00 | 0.00 | 0.00 | 38 | 1011.0 |
| 20260904201924 | 99 | 212 | 2.6 | 11.3 | 0.00 | 0.00 | 0.00 | 37 | 1011.0 |
| 20260904201620 | 98 | 86 | 3.5 | 11.3 | 0.00 | 0.00 | 0.00 | 38 | 1011.1 |
| 20260904200833 | 98 | 145 | 4.3 | 9.6 | 0.00 | 0.00 | 0.00 | 39 | 1011.2 |
| 20260904200306 | 98 | 108 | 4.3 | 13.9 | 0.00 | 0.00 | 0.00 | 38 | 1011.2 |
| 20260904195738 | 98 | 109 | 4.3 | 12.2 | 0.00 | 0.00 | 0.00 | 38 | 1011.2 |
| 20260904195237 | 97 | 127 | 4.3 | 10.4 | 0.00 | 0.00 | 0.00 | 39 | 1011.3 |
| 20260904195159 | 98 | 255 | 3.5 | 10.4 | 0.00 | 0.00 | 0.00 | 38 | 1011.5 |
| 20260904194152 | 97 | 166 | 3.5 | 8.7 | 0.00 | 0.00 | 0.00 | 40 | 1011.5 |
| 20260904194137 | 98 | 167 | 4.3 | 10.4 | 0.00 | 0.00 | 0.00 | 39 | 1011.6 |
| 20260904193144 | 97 | 137 | 3.5 | 11.3 | 0.00 | 0.00 | 0.00 | 40 | 1011.7 |
| 20260904192910 | 98 | 131 | 2.6 | 9.6 | 0.00 | 0.00 | 0.00 | 39 | 1011.9 |
| 20260904192340 | 98 | 209 | 2.6 | 7.8 | 0.00 | 0.00 | 0.00 | 40 | 1011.9 |
| 20260904191547 | 97 | 207 | 2.6 | 8.7 | 0.00 | 0.00 | 0.00 | 40 | 1012.0 |
| 20260904191018 | 97 | 233 | 3.5 | 8.7 | 0.00 | 0.00 | 0.00 | 42 | 1012.0 |
| 20260904190517 | 97 | 141 | 3.5 | 7.8 | 0.00 | 0.00 | 0.00 | 41 | 1012.1 |
| 20260904190013 | 97 | 120 | 3.5 | 7.8 | 0.00 | 0.00 | 0.00 | 40 | 1012.2 |
| 20260904185509 | 97 | 155 | 3.5 | 10.4 | 0.00 | 0.00 | 0.00 | 41 | 1012.2 |
| 20260904185009 | 98 | 172 | 3.5 | 10.4 | 0.00 | 0.00 | 0.00 | 40 | 1012.2 |
| 20260904184443 | 97 | 91 | 3.5 | 9.6 | 0.00 | 0.00 | 0.00 | 43 | 1012.2 |
| 20260904183918 | 96 | 172 | 3.5 | 9.6 | 0.00 | 0.00 | 0.00 | 43 | 1012.3 |
| 20260904183348 | 97 | 135 | 2.6 | 7.8 | 0.00 | 0.00 | 0.00 | 42 | 1012.5 |
| 20260904183115 | 97 | 114 | 1.7 | 7.8 | 0.00 | 0.00 | 0.00 | 41 | 1012.5 |
| 20260904182318 | 96 | 221 | 2.6 | 7.8 | 0.00 | 0.00 | 0.00 | 43 | 1012.5 |
| 20260904181751 | 96 | 136 | 2.6 | 7.8 | 0.00 | 0.00 | 0.00 | 44 | 1012.7 |
| 20260904181513 | 96 | 199 | 2.6 | 7.8 | 0.00 | 0.00 | 0.00 | 44 | 1012.8 |
| 20260904180747 | 96 | 141 | 2.6 | 7.8 | 0.00 | 0.00 | 0.00 | 43 | 1012.8 |
| 20260904180218 | 95 | 146 | 2.6 | 8.7 | 0.00 | 0.00 | 0.00 | 44 | 1012.9 |
| 20260904175717 | 95 | 114 | 3.5 | 9.6 | 0.00 | 0.00 | 0.00 | 46 | 1013.1 |
| 20260904175150 | 95 | 114 | 3.5 | 7.8 | 0.00 | 0.00 | 0.00 | 44 | 1013.0 |
| 20260904174625 | 96 | 148 | 3.5 | 7.8 | 0.00 | 0.00 | 0.00 | 43 | 1013.1 |
| 20260904174326 | 95 | 138 | 3.5 | 7.8 | 0.00 | 0.00 | 0.00 | 46 | 1013.1 |
| 20260904173541 | 95 | 111 | 2.6 | 10.4 | 0.00 | 0.00 | 0.00 | 45 | 1013.1 |
| 20260904173259 | 95 | 226 | 1.7 | 7.8 | 0.00 | 0.00 | 0.00 | 43 | 1013.3 |
| 20260904172541 | 95 | 221 | 1.7 | 7.8 | 0.00 | 0.00 | 0.00 | 46 | 1013.4 |
| 20260904172243 | 94 | 150 | 2.6 | 7.8 | 0.00 | 0.00 | 0.00 | 47 | 1013.5 |
| 20260904171511 | 94 | 234 | 3.5 | 7.8 | 0.00 | 0.00 | 0.00 | 46 | 1013.5 |
| 20260904170942 | 94 | 101 | 1.7 | 6.1 | 0.00 | 0.00 | 0.00 | 45 | 1013.5 |
| 20260904170440 | 93 | 230 | 1.7 | 6.1 | 0.00 | 0.00 | 0.00 | 49 | 1013.5 |
| 20260904165939 | 93 | 146 | 2.6 | 6.1 | 0.00 | 0.00 | 0.00 | 49 | 1013.6 |
| 20260904165410 | 92 | 105 | 2.6 | 6.1 | 0.00 | 0.00 | 0.00 | 51 | 1013.6 |
| 20260904164908 | 92 | 212 | 2.6 | 8.7 | 0.00 | 0.00 | 0.00 | 52 | 1013.7 |
| 20260904164342 | 92 | 223 | 2.6 | 8.7 | 0.00 | 0.00 | 0.00 | 52 | 1013.7 |
| 20260904163841 | 91 | 244 | 2.6 | 7.8 | 0.00 | 0.00 | 0.00 | 53 | 1013.7 |
| 20260904163343 | 91 | 191 | 2.6 | 7.8 | 0.00 | 0.00 | 0.00 | 55 | 1013.7 |
| 20260904163105 | 90 | 219 | 3.5 | 7.0 | 0.00 | 0.00 | 0.00 | 55 | 1013.8 |
| 20260904162345 | 90 | 238 | 2.6 | 6.1 | 0.00 | 0.00 | 0.00 | 55 | 1013.7 |
| 20260904161818 | 90 | 214 | 3.5 | 9.6 | 0.00 | 0.00 | 0.00 | 55 | 1013.7 |
| 20260904161318 | 90 | 136 | 3.5 | 9.6 | 0.00 | 0.00 | 0.00 | 58 | 1013.7 |
| 20260904161245 | 90 | 122 | 2.6 | 7.8 | 0.00 | 0.00 | 0.00 | 58 | 1013.7 |
| 20260904160305 | 90 | 128 | 3.5 | 8.7 | 0.00 | 0.00 | 0.00 | 58 | 1013.8 |
| 20260904155736 | 89 | 139 | 3.5 | 8.7 | 0.00 | 0.00 | 0.00 | 58 | 1013.8 |
| 20260904155234 | 89 | 149 | 3.5 | 8.7 | 0.00 | 0.00 | 0.00 | 59 | 1013.7 |
| 20260904154707 | 89 | 233 | 3.5 | 8.7 | 0.00 | 0.00 | 0.00 | 60 | 1013.7 |
| 20260904154206 | 88 | 207 | 3.5 | 8.7 | 0.00 | 0.00 | 0.00 | 61 | 1013.7 |
| 20260904153638 | 88 | 185 | 2.6 | 8.7 | 0.00 | 0.00 | 0.00 | 62 | 1013.6 |
| 20260904153134 | 87 | 217 | 4.3 | 7.0 | 0.00 | 0.00 | 0.00 | 65 | 1013.7 |
| 20260904152608 | 87 | 226 | 5.2 | 10.4 | 0.00 | 0.00 | 0.00 | 65 | 1013.6 |
| 20260904152306 | 87 | 245 | 3.5 | 9.6 | 0.00 | 0.00 | 0.00 | 65 | 1013.6 |
| 20260904151514 | 86 | 135 | 2.6 | 8.7 | 0.00 | 0.00 | 0.00 | 68 | 1013.5 |
| 20260904150954 | 86 | 210 | 2.6 | 8.7 | 0.00 | 0.00 | 0.00 | 69 | 1013.5 |
| 20260904150429 | 85 | 181 | 2.6 | 7.0 | 0.00 | 0.00 | 0.00 | 70 | 1013.5 |
| 20260904145902 | 85 | 195 | 2.6 | 7.0 | 0.00 | 0.00 | 0.00 | 71 | 1013.6 |
| 20260904145357 | 84 | 114 | 2.6 | 7.0 | 0.00 | 0.00 | 0.00 | 72 | 1013.5 |
| 20260904144857 | 84 | 236 | 3.5 | 8.7 | 0.00 | 0.00 | 0.00 | 73 | 1013.6 |
| 20260904144829 | 83 | 167 | 3.5 | 8.7 | 0.00 | 0.00 | 0.00 | 75 | 1013.6 |
| 20260904143809 | 83 | 196 | 3.5 | 7.8 | 0.00 | 0.00 | 0.00 | 75 | 1013.6 |
| 20260904143236 | 83 | 226 | 3.5 | 6.1 | 0.00 | 0.00 | 0.00 | 75 | 1013.7 |
| 20260904142925 | 83 | 218 | 3.5 | 7.0 | 0.00 | 0.00 | 0.00 | 76 | 1013.7 |
| 20260904142206 | 83 | 202 | 2.6 | 7.0 | 0.00 | 0.00 | 0.00 | 77 | 1013.7 |
| 20260904141645 | 83 | 207 | 2.6 | 7.0 | 0.00 | 0.00 | 0.00 | 78 | 1013.6 |
| 20260904141138 | 82 | 120 | 2.6 | 6.1 | 0.00 | 0.00 | 0.00 | 78 | 1013.5 |
| 20260904140640 | 82 | 212 | 3.5 | 7.8 | 0.00 | 0.00 | 0.00 | 79 | 1013.6 |
| 20260904140136 | 82 | 252 | 3.5 | 7.8 | 0.00 | 0.00 | 0.00 | 79 | 1013.6 |